Location: Kam�li
(14.6864°N, 3.1482°W)
Time: 01:56:54
(UTC+00:00)

Cosmos 1408 - Pass Details

Date: 29 October 2020
Orbit: 470 x 492 km, 82.6° (Epoch: 02 December)

Event Time Altitude Azimuth Distance (km) Brightness Sun altitude
Rises 18:21:14 0° 19° (NNE) 2,552 5.9 -9.4°
Reaches altitude 10° 18:23:49 10° 38° (NE) 1,674 4.8 -10.0°
Maximum altitude 18:26:25 18° 83° (E) 1,248 4.0 -10.6°
Drops below altitude 10° 18:29:00 10° 128° (SE) 1,679 4.9 -11.2°
Sets 18:31:36 0° 148° (SSE) 2,561 6.0 -11.8°
